x

Kaunakakai, Molokai Airport (91186) Weather Station

1:54pm - Sun 26th Jun 2016 All times are HST. -10 hours from GMT.

  • Wind
    13mph, 27mph gusts
  • Air Temp 82°f
  • Sea Pressure 1016.3mb
  • Kaunakakai, Molokai Airport
  • Kaunakakai, Molokai Airport

More Historic Weather Station data

Upgrade to MSW Pro to gain access to the past 30 days of data for over 8000 Wavebouys and Weather Stations around the globe.

Join Pro

Comparision Forecast

View Surf forecast
   
Sun 06/26 1:54pm 13 27 mph 1016.3mb 82f
12:54pm 16 23 mph 1016.6mb 79f
11:54am 15 27 mph 1017.3mb 81f
10:54am 20 27 mph 1017.3mb 81f
9:54am 20 27 mph 1017.3mb 81f
8:54am 16 24 mph 1017.6mb 79f
7:54am 13 24 mph 1017.6mb 77f
6:54am 9
mph
1017.3mb 75f
5:54am 9 18 mph 1016.3mb 73f
4:54am 9
mph
1015.9mb 73f
3:54am 9 20 mph 1015.9mb 73f
2:54am 8
mph
1016.3mb 73f
1:54am 8
mph
1016.3mb 73f
12:54am 13 22 mph 1016.9mb 73f
Sat 06/25 11:54pm 9 17 mph 1017.6mb 73f
11:33pm 13
mph
1017.6mb 73f
11:14pm 3
mph
1018mb 73f
10:54pm 12
mph
1018mb 73f
10:01pm 14 20 mph 1017.6mb 73f
9:54pm 8 18 mph 1017.6mb 73f
8:54pm 9 17 mph 1017.3mb 75f
8:31pm 12 21 mph 1017.3mb 75f
8:24pm 16 21 mph 1017.3mb 75f
7:54pm 14 23 mph 1017.3mb 75f
6:54pm 10 22 mph 1016.6mb 75f
5:54pm 14 23 mph 1015.9mb 79f
4:54pm 15 27 mph 1015.9mb 79f
3:54pm 17 24 mph 1015.9mb 81f
3:26pm 17 25 mph 1016.3mb 81f
2:54pm 14 23 mph 1016.3mb 81f
1:54pm 15 25 mph 1016.6mb 81f
1:25pm 18 27 mph 1016.6mb 82f
1:07pm 14 30 mph 1016.9mb 81f
12:54pm 18 25 mph 1016.9mb 82f
11:54am 16 25 mph 1017.3mb 81f
10:54am 16 28 mph 1017.6mb 81f
9:54am 13 28 mph 1017.6mb 81f
8:54am 16 28 mph 1018mb 77f
7:54am 13 22 mph 1017.6mb 75f
7:35am 14 22 mph 1017.3mb 75f
7:23am 13 25 mph 1017.6mb 73f
6:54am 15 20 mph 1017.3mb 73f
5:54am 9 22 mph 1016.6mb 73f
4:54am 9 21 mph 1016.9mb 73f
3:54am 9
mph
1016.6mb 73f
2:54am 8
mph
1016.6mb 73f
1:54am 9
mph
1016.9mb 73f
12:54am 13
mph
1017.3mb 73f
Fri 06/24 11:54pm 9
mph
1018mb 73f
10:54pm 15 23 mph 1018.3mb 73f
9:54pm 12 20 mph 1018.3mb 73f
8:54pm 9
mph
1018mb 75f
7:54pm 10 17 mph 1017.6mb 75f
6:54pm 10 18 mph 1016.9mb 77f
5:54pm 14 20 mph 1016.6mb 79f
4:54pm 14 24 mph 1016.3mb 79f
3:54pm 16 23 mph 1016.6mb 82f
2:54pm 14 27 mph 1016.6mb 82f
1:54pm 14 27 mph 1016.9mb 82f
12:54pm 14 21 mph 1016.9mb 82f
11:54am 12 22 mph 1017.6mb 81f
10:54am 13 21 mph 1018mb 81f
9:54am 13 18 mph 1018.3mb 79f
8:54am 8 20 mph 1018.6mb 75f
8:32am 13 22 mph 1018.3mb 77f
7:54am 10 20 mph 1018.3mb 75f
6:54am 10 18 mph 1018.3mb 73f
6:19am 9
mph
1018mb 73f
5:54am 8
mph
1017.6mb 73f
5:52am 7
mph
1017.6mb 73f
5:17am 6 17 mph 1017.6mb 73f
4:54am 9 22 mph 1017.6mb 73f
4:37am 9 20 mph 1017.6mb 73f
3:54am 9
mph
1017.6mb 73f
3:02am 13 21 mph 1017.6mb 73f
2:54am 9 21 mph 1018mb 73f
2:05am 10 18 mph 1018mb 73f
1:54am 9 16 mph 1018mb 73f
1:23am 10 17 mph 1018mb 73f
12:54am 8
mph
1018.3mb 73f
Thu 06/23 11:54pm 10 17 mph 1019mb 73f
10:54pm 13 16 mph 1019mb 75f
9:54pm 8 16 mph 1019mb 75f
8:54pm 14 20 mph 1018.6mb 75f
7:54pm 17 28 mph 1018.3mb 75f
7:35pm 15 22 mph 1018.3mb 75f
6:54pm 16 22 mph 1017.6mb 75f
6:05pm 13 24 mph 1017.6mb 77f
5:54pm 15 22 mph 1017.6mb 77f
5:03pm 13 22 mph 1017.3mb 79f
4:54pm 12 25 mph 1017.3mb 79f
4:33pm 15 25 mph 1017.3mb 79f
4:02pm 14 28 mph 1017.6mb 81f
3:54pm 15 23 mph 1017.6mb 81f
2:54pm 17 24 mph 1017.6mb 82f
2:12pm 18 29 mph 1018mb 82f
1:54pm 16 23 mph 1018mb 81f
12:54pm 15 22 mph 1018.6mb 82f
11:54am 17 28 mph 1018.6mb 82f
10:54am 15 24 mph 1019mb 82f
9:54am 14 25 mph 1018.6mb 81f
8:54am 14 20 mph 1018.3mb 81f
7:54am 9
mph
1018.3mb 75f
7:03am 10 16 mph 1018mb 75f
6:54am 10 18 mph 1018mb 75f
6:46am 10 17 mph 1018mb 73f
5:54am 9 21 mph 1017.3mb 73f
4:54am 12 21 mph 1016.9mb 73f
3:54am 10
mph
1016.6mb 73f
2:54am 8
mph
1016.9mb 73f
1:54am 7
mph
1017.3mb 73f
12:54am 8
mph
1017.6mb 73f